Location: Newark
(0.5300°S, 127.4800°E)
Time: 16:17:27
(UTC+00:00)

Vanguard 1 - All Passes

Search period start: 23 September 2019 00:00
Search period end: 03 October 2019 00:00
Orbit: 654 x 3830 km, 34.3° (Epoch: 21 September)

Date Brightness Start Highest point End Pass type
(mag) Time Alt. Az. Time Alt. Az. Time Alt. Az.
23 Sep - 02:03:53 10° WNW 02:11:32 63° SW 02:16:23 10° SE daylight
23 Sep - 11:35:20 10° SSW 11:46:24 45° SE 12:05:00 10° ENE visible
23 Sep - 13:55:33 10° WSW 14:11:15 74° NW 14:34:56 10° NE visible
23 Sep - 16:22:18 10° W 16:40:22 34° NNW 17:00:00 10° NNE visible
23 Sep - 19:00:49 10° NW 19:13:31 17° N 19:24:16 10° NNE visible
23 Sep - 21:36:12 10° NNW 21:45:30 17° N 21:52:22 10° NE daylight
24 Sep - 00:00:57 10° NW 00:11:23 39° NNE 00:17:29 10° E daylight
24 Sep - 02:25:49 10° WNW 02:32:22 36° SW 02:36:52 10° SSE daylight
24 Sep - 09:40:02 10° S 09:44:41 14° SE 09:50:34 10° ESE visible
24 Sep - 11:55:52 10° SW 12:07:34 59° SE 12:27:54 10° ENE visible
24 Sep - 14:17:08 10° WSW 14:33:09 60° NW 14:56:21 10° NE visible
24 Sep - 16:46:04 10° WNW 17:03:22 28° NNW 17:21:14 10° NNE visible
24 Sep - 19:25:47 10° NW 19:37:21 16° N 19:46:54 10° NNE visible
24 Sep - 21:57:21 10° NNW 22:08:11 21° NNE 22:15:34 10° ENE daylight
25 Sep - 00:22:03 10° NW 00:32:54 57° NNE 00:38:57 10° ESE daylight
25 Sep - 02:48:25 10° W 02:53:10 20° SW 02:56:51 10° S daylight
25 Sep - 09:59:10 10° S 10:06:05 21° SE 10:16:07 10° E visible
25 Sep - 12:16:37 10° SW 12:28:49 75° SE 12:50:17 10° ENE visible
25 Sep - 14:39:06 10° WSW 14:55:18 49° NNW 15:17:39 10° NE visible
25 Sep - 17:10:30 10° WNW 17:26:44 23° NNW 17:42:43 10° NNE visible
25 Sep - 19:49:37 10° NNW 20:01:05 16° N 20:10:13 10° NE visible
25 Sep - 22:18:24 10° NNW 22:30:34 27° NNE 22:38:13 10° ENE daylight
26 Sep - 00:43:26 10° NW 00:54:08 86° NE 01:00:02 10° SE daylight
26 Sep - 03:12:42 10° SW 03:14:05 11° SW 03:15:22 10° SSW daylight
26 Sep - 10:19:02 10° SSW 10:27:13 30° SE 10:40:26 10° E visible
26 Sep - 12:37:34 10° SW 12:50:12 87° NW 13:12:16 10° NE visible
26 Sep - 15:01:31 10° W 15:17:44 40° NNW 15:38:55 10° NE visible
26 Sep - 17:35:24 10° NW 17:50:29 20° NNW 18:04:38 10° NNE visible
26 Sep - 20:12:18 10° NNW 20:24:34 18° N 20:33:49 10° NE visible
26 Sep - 22:39:27 10° NW 22:52:40 36° NNE 23:00:23 10° E daylight
27 Sep - 01:05:10 10° WNW 01:15:08 62° SW 01:20:48 10° SE daylight
27 Sep - 10:39:15 10° SSW 10:48:13 42° SE 11:03:54 10° ENE visible
27 Sep - 12:58:48 10° WSW 13:11:48 71° NW 13:33:57 10° NE visible
27 Sep - 15:24:28 10° W 15:40:30 32° NNW 16:00:14 10° NNE visible
27 Sep - 18:00:19 10° NW 18:14:27 18° N 18:27:11 10° NNE visible
27 Sep - 20:34:13 10° NNW 20:47:42 22° NNE 20:57:14 10° ENE visible
27 Sep - 23:00:37 10° NW 23:14:29 48° NNE 23:22:05 10° ESE daylight
28 Sep - 01:27:21 10° WNW 01:35:57 38° SW 01:41:16 10° SSE daylight
28 Sep - 08:46:57 10° SE 08:47:35 10° SE 08:48:14 10° SE daylight
28 Sep - 10:59:42 10° SW 11:09:14 57° SE 11:26:44 10° ENE visible
28 Sep - 13:20:20 10° WSW 13:33:40 56° NNW 13:55:27 10° NE visible
28 Sep - 15:48:01 10° WNW 16:03:38 27° NNW 16:21:45 10° NNE visible
28 Sep - 18:24:41 10° NW 18:38:30 18° N 18:50:24 10° NE visible
28 Sep - 20:55:42 10° NNW 21:10:30 26° NNE 21:20:14 10° ENE visible
28 Sep - 23:21:58 10° NW 23:36:03 67° NNE 23:43:26 10° ESE daylight
29 Sep - 01:50:08 10° W 01:56:43 23° SW 02:01:18 10° S daylight
29 Sep - 09:03:49 10° S 09:08:49 17° SE 09:15:38 10° ESE daylight
29 Sep - 11:20:24 10° SW 11:30:19 76° SE 11:49:04 10° ENE visible
29 Sep - 13:42:14 10° W 13:55:50 45° NNW 14:16:49 10° NE visible
29 Sep - 16:12:06 10° WNW 16:27:08 23° NNW 16:43:36 10° NNE visible
29 Sep - 18:48:07 10° NNW 19:02:25 19° N 19:14:07 10° NE visible
29 Sep - 21:17:01 10° NW 21:32:59 33° NNE 21:42:44 10° E daylight
29 Sep - 23:43:35 10° NW 23:57:19 88° SW 00:04:28 10° SE daylight
30 Sep - 02:14:03 10° WSW 02:17:35 13° SW 02:20:29 10° SSW daylight
30 Sep - 09:23:22 10° SSW 09:29:49 26° SE 09:39:54 10° E visible
30 Sep - 11:41:20 10° SW 11:51:37 84° NW 12:11:01 10° NE visible
30 Sep - 14:04:34 10° W 14:18:17 36° NNW 14:38:11 10° NE visible
30 Sep - 16:36:31 10° NW 16:51:01 20° N 17:06:01 10° NNE visible
30 Sep - 19:10:40 10° NNW 19:26:02 22° NNE 19:37:53 10° ENE visible
30 Sep - 21:38:18 10° NW 21:55:08 43° NNE 22:04:47 10° E daylight
01 Oct - 00:05:32 10° WNW 00:18:20 62° SW 00:25:13 10° SE daylight
01 Oct - 09:43:26 10° SSW 09:50:41 39° SE 10:03:14 10° ENE visible
01 Oct - 12:02:32 10° WSW 12:13:09 66° NNW 12:32:41 10° NE visible
01 Oct - 14:27:25 10° WNW 14:41:05 30° NNW 14:59:38 10° NNE visible
01 Oct - 17:00:51 10° NW 17:15:08 19° N 17:29:09 10° NE visible
01 Oct - 19:32:36 10° NNW 19:49:17 26° NNE 20:01:20 10° ENE visible
01 Oct - 21:59:39 10° NW 22:17:01 56° NNE 22:26:25 10° ESE daylight
02 Oct - 00:27:57 10° WNW 00:39:11 41° SW 00:45:40 10° SSE daylight
02 Oct - 10:03:50 10° SW 10:11:33 56° SE 10:25:55 10° ENE visible
02 Oct - 12:24:02 10° WSW 12:34:59 51° NNW 12:54:08 10° NE visible
02 Oct - 14:50:47 10° WNW 15:04:14 25° NNW 15:21:21 10° NNE visible
02 Oct - 17:24:35 10° NW 17:39:18 19° N 17:52:58 10° NE visible
02 Oct - 19:54:09 10° NNW 20:12:09 31° NNE 20:24:18 10° E visible
02 Oct - 22:21:10 10° NW 22:38:37 74° NE 22:47:43 10° ESE daylight
